KC1DMA Weather Reports


Display with metric or nautical units.
time (UTC)temp
F
wind
direction
speed
MPH
gust
MPH
rain 1hr
in
rain 24hr
in
rain mn
in
humidity
%
barometer
mb
20260505164916 73 173 7.0 7.0 0.00 0.00 0.00 55 1011.6
20260505164413 72 30 2.0 3.0 0.00 0.00 0.00 59 1011.8
20260505163911 73 173 4.0 9.0 0.00 0.00 0.00 56 1011.6
20260505163409 73 297 3.0 5.0 0.00 0.00 0.00 58 1011.9
20260505162908 71 228 3.0 4.0 0.00 0.00 0.00 58 1011.9
20260505162403 71 228 3.0 4.0 0.00 0.00 0.00 58 1011.9
20260505161900 71 228 3.0 4.0 0.00 0.00 0.00 58 1012.1
20260505161357 72 157 8.0 15.0 0.00 0.00 0.00 57 1012.3
20260505160855 72 237 2.0 8.0 0.00 0.00 0.00 57 1012.1
20260505160353 72 177 3.0 5.0 0.00 0.00 0.00 57 1012.2
20260505153331 71 167 6.0 7.0 0.00 0.00 0.00 58 1012.6
20260505152828 70 251 2.0 4.0 0.00 0.00 0.00 57 1012.8
20260505152325 71 136 0.0 8.0 0.00 0.00 0.00 57 1012.8
20260505151820 70 162 3.0 5.0 0.00 0.00 0.00 58 1012.9
20260505151317 69 166 6.0 10.0 0.00 0.00 0.00 59 1013.0
20260505150814 68 151 9.0 11.0 0.00 0.00 0.00 59 1013.1
20260505150311 68 14 2.0 7.0 0.00 0.00 0.00 61 1013.1
20260505140240 64 119 3.0 4.0 0.00 0.00 0.00 70 1012.6
20260505130204 58 184 2.0 6.0 0.00 0.00 0.00 79 1012.7
20260505124654 58 184 2.0 6.0 0.00 0.00 0.00 79 1012.8
20260505124151 58 184 2.0 6.0 0.00 0.00 0.00 79 1012.8
20260505123648 58 106 2.0 6.0 0.00 0.00 0.00 80 1012.9
20260505123145 58 118 3.0 6.0 0.00 0.00 0.00 79 1012.9
20260505122641 58 51 5.0 5.0 0.00 0.00 0.00 79 1012.9
20260505122138 58 154 3.0 6.0 0.00 0.00 0.00 80 1013.0
20260505121634 58 96 4.0 7.0 0.00 0.00 0.00 80 1013.1
20260505121131 59 144 4.0 5.0 0.00 0.00 0.00 79 1013.1
20260505120627 58 268 1.0 6.0 0.00 0.00 0.00 81 1013.0
20260505120123 58 143 2.0 5.0 0.00 0.00 0.00 80 1013.1
20260505115617 57 289 3.0 4.0 0.00 0.00 0.00 81 1013.1
20260505115115 57 181 3.0 6.0 0.00 0.00 0.00 82 1013.1
20260505114612 57 133 2.0 5.0 0.00 0.00 0.00 83 1013.0
20260505114108 56 139 1.0 5.0 0.00 0.00 0.00 84 1013.1
20260505113605 52 87 4.0 5.0 0.00 0.00 0.00 90 1013.2
20260505113101 52 87 4.0 5.0 0.00 0.00 0.00 90 1013.2
20260505112558 52 87 4.0 5.0 0.00 0.00 0.00 90 1012.9
20260505112057 52 87 4.0 5.0 0.00 0.00 0.00 90 1012.9
20260505111555 52 87 4.0 5.0 0.00 0.00 0.00 90 1013.2
20260505111052 52 87 4.0 5.0 0.00 0.00 0.00 90 1012.8
20260505110548 52 87 4.0 5.0 0.00 0.00 0.00 90 1012.9
20260505102021 52 162 3.0 7.0 0.00 0.00 0.00 90 1012.4
20260505101519 52 63 4.0 6.0 0.00 0.00 0.00 90 1012.2
20260505101015 52 120 4.0 10.0 0.00 0.00 0.00 90 1012.0
20260505100507 52 60 2.0 6.0 0.00 0.00 0.00 90 1012.1
20260505100004 52 197 2.0 6.0 0.00 0.00 0.00 90 1012.2
20260505095500 52 98 4.0 6.0 0.00 0.00 0.00 90 1012.2
20260505094956 52 74 2.0 6.0 0.00 0.00 0.00 89 1011.9
20260505094453 52 99 2.0 9.0 0.00 0.00 0.00 89 1012.1
20260505093949 52 72 3.0 6.0 0.00 0.00 0.00 89 1012.0
20260505093446 52 151 2.0 4.0 0.00 0.00 0.00 89 1011.9
20260505092944 52 116 2.0 4.0 0.00 0.00 0.00 89 1012.0
20260505092441 53 155 3.0 4.0 0.00 0.00 0.00 88 1012.0
20260505091938 53 193 2.0 6.0 0.00 0.00 0.00 88 1012.0
20260505091436 53 256 0.0 4.0 0.00 0.00 0.00 88 1012.0
20260505090934 53 106 4.0 4.0 0.00 0.00 0.00 87 1011.8
20260505090432 53 123 2.0 8.0 0.00 0.00 0.00 87 1011.9
20260505085929 53 138 5.0 5.0 0.00 0.00 0.00 87 1011.9
20260505085426 53 64 1.0 6.0 0.00 0.00 0.00 86 1012.1
20260505084924 53 149 2.0 4.0 0.00 0.00 0.00 86 1011.9
20260505084422 53 126 4.0 6.0 0.00 0.00 0.00 86 1012.0
20260505083920 53 226 3.0 5.0 0.00 0.00 0.00 85 1012.0
20260505083417 54 126 2.0 7.0 0.00 0.00 0.00 85 1012.1
20260505082913 54 171 2.0 12.0 0.00 0.00 0.00 84 1012.1
20260505082409 54 147 4.0 8.0 0.00 0.00 0.00 84 1012.0
20260505081906 54 144 2.0 6.0 0.00 0.00 0.00 84 1012.0
20260505081403 54 121 3.0 5.0 0.00 0.00 0.00 84 1012.0
20260505080900 54 133 4.0 6.0 0.00 0.00 0.00 83 1012.0
20260505080356 54 89 3.0 4.0 0.00 0.00 0.00 83 1011.9
20260505075851 54 124 1.0 4.0 0.00 0.00 0.00 82 1012.1
20260505075348 54 159 5.0 6.0 0.00 0.00 0.00 82 1012.2
20260505074846 54 163 6.0 9.0 0.00 0.00 0.00 82 1012.0
20260505074342 54 120 3.0 5.0 0.00 0.00 0.00 82 1012.1
20260505073840 54 110 2.0 4.0 0.00 0.00 0.00 82 1012.1
20260505073337 54 91 2.0 9.0 0.00 0.00 0.00 82 1011.9
20260505072834 54 158 4.0 8.0 0.00 0.00 0.00 82 1012.0
20260505072330 54 140 8.0 9.0 0.00 0.00 0.00 82 1012.1
20260505071826 54 188 6.0 10.0 0.00 0.00 0.00 82 1012.2
20260505071323 54 139 5.0 6.0 0.00 0.00 0.00 81 1012.2
20260505070821 54 153 2.0 4.0 0.00 0.00 0.00 81 1012.2
20260505070318 54 129 4.0 5.0 0.00 0.00 0.00 81 1012.2
20260505065812 54 200 2.0 11.0 0.00 0.00 0.00 80 1012.2
20260505065309 54 72 2.0 8.0 0.00 0.00 0.00 80 1012.3
20260505064807 54 172 6.0 6.0 0.00 0.00 0.00 80 1012.3
20260505064304 54 107 4.0 5.0 0.00 0.00 0.00 80 1012.2
20260505063802 54 209 1.0 4.0 0.00 0.00 0.00 79 1012.1
20260505063258 54 113 3.0 3.0 0.00 0.00 0.00 79 1012.2
20260505062755 54 165 4.0 4.0 0.00 0.00 0.00 78 1012.3
20260505062252 55 122 7.0 9.0 0.00 0.00 0.00 78 1012.3
20260505061748 55 101 4.0 7.0 0.00 0.00 0.00 77 1012.4
20260505061247 54 136 3.0 3.0 0.00 0.00 0.00 77 1012.4
20260505060743 54 103 4.0 5.0 0.00 0.00 0.00 77 1012.4
20260505060241 54 166 6.0 6.0 0.00 0.00 0.00 77 1012.4
20260505055736 54 104 5.0 6.0 0.00 0.00 0.00 77 1012.3
20260505055232 54 141 1.0 5.0 0.00 0.00 0.00 76 1012.6
20260505054730 54 108 2.0 4.0 0.00 0.00 0.00 76 1012.6
20260505054228 54 98 1.0 6.0 0.00 0.00 0.00 76 1012.5
20260505053726 54 146 3.0 4.0 0.00 0.00 0.00 76 1012.6
20260505053222 54 111 1.0 6.0 0.00 0.00 0.00 77 1012.6
20260505052719 54 138 2.0 4.0 0.00 0.00 0.00 76 1012.8
20260505052216 54 149 0.0 8.0 0.00 0.00 0.00 76 1012.8
20260505051713 54 123 2.0 6.0 0.00 0.00 0.00 76 1012.9
20260505051211 54 184 1.0 4.0 0.00 0.00 0.00 76 1012.6
20260505050704 54 144 2.0 4.0 0.00 0.00 0.00 76 1012.7
20260505050202 54 135 4.0 4.0 0.00 0.00 0.00 75 1012.8
20260505041636 55 173 8.0 9.0 0.00 0.00 0.00 73 1013.0
20260505041134 55 129 4.0 5.0 0.00 0.00 0.00 73 1013.0
20260505040630 55 141 4.0 10.0 0.00 0.00 0.00 73 1013.2
20260505040128 54 137 3.0 6.0 0.00 0.00 0.00 73 1013.2
20260505035624 54 143 3.0 5.0 0.00 0.00 0.00 74 1012.9
20260505035120 54 119 1.0 4.0 0.00 0.00 0.00 74 1013.1
20260505034617 54 39 2.0 6.0 0.00 0.00 0.00 74 1013.1
20260505034114 54 141 3.0 4.0 0.00 0.00 0.00 74 1013.0
20260505033611 54 116 3.0 6.0 0.00 0.00 0.00 73 1013.0
20260505033109 54 167 5.0 8.0 0.00 0.00 0.00 74 1013.1
20260505032607 54 153 2.0 5.0 0.00 0.00 0.00 74 1013.0
20260505032103 54 131 5.0 6.0 0.00 0.00 0.00 73 1013.0
20260505031600 54 131 5.0 6.0 0.00 0.00 0.00 73 1013.3
20260505031056 54 156 2.0 3.0 0.00 0.00 0.00 74 1013.1
20260505030554 54 132 3.0 6.0 0.00 0.00 0.00 73 1013.2
20260505030049 54 135 5.0 5.0 0.00 0.00 0.00 73 1013.2
20260505025545 54 147 3.0 5.0 0.00 0.00 0.00 73 1013.2
20260505025044 54 148 5.0 6.0 0.00 0.00 0.00 73 1013.0
20260505024541 54 144 3.0 9.0 0.00 0.00 0.00 73 1013.0
20260505024038 54 74 2.0 4.0 0.00 0.00 0.00 74 1013.1
20260505023535 54 135 4.0 4.0 0.00 0.00 0.00 74 1013.2
20260505023033 54 131 3.0 3.0 0.00 0.00 0.00 74 1013.1
20260505022530 54 117 2.0 5.0 0.00 0.00 0.00 74 1013.1
20260505022027 54 105 3.0 7.0 0.00 0.00 0.00 73 1013.1
20260505021524 54 149 3.0 5.0 0.00 0.00 0.00 74 1013.3
20260505021020 54 138 2.0 6.0 0.00 0.00 0.00 73 1013.0
20260505020514 54 132 3.0 6.0 0.00 0.00 0.00 73 1013.0
20260505020012 54 108 4.0 4.0 0.00 0.00 0.00 73 1013.2
20260505015509 54 127 5.0 5.0 0.00 0.00 0.00 73 1013.2
20260505015006 54 107 4.0 9.0 0.00 0.00 0.00 73 1013.1
20260505014503 54 127 3.0 9.0 0.00 0.00 0.00 72 1013.2
20260505014000 54 146 4.0 4.0 0.00 0.00 0.00 72 1013.0
20260505013457 55 148 10.0 10.0 0.00 0.00 0.00 72 1013.1
20260505012954 55 123 2.0 3.0 0.00 0.00 0.00 71 1013.1
20260505012452 55 152 2.0 6.0 0.00 0.00 0.00 71 1013.0
20260505011949 55 93 3.0 10.0 0.00 0.00 0.00 70 1012.9
20260505011444 55 162 6.0 6.0 0.00 0.00 0.00 70 1012.9
20260505010942 55 128 6.0 8.0 0.00 0.00 0.00 69 1012.9
20260505010437 55 106 2.0 4.0 0.00 0.00 0.00 69 1012.7
20260505005933 55 88 5.0 8.0 0.00 0.00 0.00 68 1012.8
20260505005430 55 155 1.0 4.0 0.00 0.00 0.00 68 1012.6
20260505004928 56 145 4.0 6.0 0.00 0.00 0.00 67 1012.6
20260505004424 56 107 3.0 9.0 0.00 0.00 0.00 67 1012.6
20260505003921 56 100 2.0 6.0 0.00 0.00 0.00 66 1012.7
20260505003419 56 183 3.0 14.0 0.00 0.00 0.00 66 1012.3
20260505002915 56 182 3.0 4.0 0.00 0.00 0.00 65 1012.2
20260505002411 56 138 5.0 6.0 0.00 0.00 0.00 65 1012.0
20260505001910 57 154 2.0 6.0 0.00 0.00 0.00 65 1012.2
20260505001407 57 127 4.0 7.0 0.00 0.00 0.00 63 1012.0
20260505000904 57 130 4.0 5.0 0.00 0.00 0.00 63 1011.9
20260505000402 57 106 4.0 5.0 0.00 0.00 0.00 62 1011.8
20260504235858 58 217 0.0 7.0 0.00 0.00 0.00 62 1011.7
20260504235355 58 173 4.0 9.0 0.00 0.00 0.00 61 1011.7
20260504234851 58 166 9.0 11.0 0.00 0.00 0.00 60 1011.7
20260504234349 58 172 2.0 5.0 0.00 0.00 0.00 60 1011.6
20260504233846 59 112 3.0 11.0 0.00 0.00 0.00 59 1011.5
20260504233341 59 224 1.0 10.0 0.00 0.00 0.00 58 1011.3
20260504232838 60 287 3.0 3.0 0.00 0.00 0.00 57 1011.5
20260504232336 60 162 4.0 4.0 0.00 0.00 0.00 57 1011.4
20260504231832 60 109 6.0 9.0 0.00 0.00 0.00 56 1011.0
20260504231329 61 212 1.0 9.0 0.00 0.00 0.00 56 1011.2
20260504230825 62 221 3.0 4.0 0.00 0.00 0.00 54 1011.0
20260504230323 62 93 2.0 9.0 0.00 0.00 0.00 54 1010.9
20260504225821 62 218 2.0 11.0 0.00 0.00 0.00 53 1011.0
20260504225317 63 226 6.0 6.0 0.00 0.00 0.00 53 1011.2
20260504224815 63 157 7.0 8.0 0.00 0.00 0.00 52 1010.8
20260504224312 63 128 5.0 9.0 0.00 0.00 0.00 51 1011.2
20260504223808 64 165 5.0 10.0 0.00 0.00 0.00 51 1011.0
20260504223304 64 138 2.0 8.0 0.00 0.00 0.00 51 1011.2
20260504222801 64 174 3.0 9.0 0.00 0.00 0.00 50 1010.9
20260504222258 65 195 3.0 6.0 0.00 0.00 0.00 49 1011.0
20260504221755 64 155 4.0 12.0 0.00 0.00 0.00 49 1011.0
20260504221252 64 148 5.0 15.0 0.00 0.00 0.00 49 1011.2
20260504220749 65 193 4.0 11.0 0.00 0.00 0.00 47 1010.9
20260504220246 65 189 4.0 14.0 0.00 0.00 0.00 47 1011.0
20260504215743 65 81 4.0 12.0 0.00 0.00 0.00 47 1011.0
20260504215240 66 143 4.0 11.0 0.00 0.00 0.00 46 1011.0
20260504214736 66 288 3.0 6.0 0.00 0.00 0.00 45 1011.0
20260504214232 67 293 2.0 6.0 0.00 0.00 0.00 45 1011.0
20260504213729 66 180 3.0 7.0 0.00 0.00 0.00 45 1010.9
20260504213226 66 149 4.0 11.0 0.00 0.00 0.00 44 1010.9
20260504212723 68 197 4.0 11.0 0.00 0.00 0.00 43 1010.9
20260504212219 67 154 6.0 10.0 0.00 0.00 0.00 43 1010.9
20260504211717 66 100 4.0 13.0 0.00 0.00 0.00 44 1010.8
20260504211213 67 225 0.0 7.0 0.00 0.00 0.00 44 1010.9
20260504210710 67 156 9.0 12.0 0.00 0.00 0.00 43 1010.9
20260504210207 68 180 4.0 7.0 0.00 0.00 0.00 43 1010.9
20260504205704 67 251 3.0 15.0 0.00 0.00 0.00 44 1010.9
20260504205201 67 87 2.0 11.0 0.00 0.00 0.00 44 1010.8
20260504204700 68 137 7.0 7.0 0.00 0.00 0.00 42 1010.9
20260504204158 67 140 10.0 12.0 0.00 0.00 0.00 42 1010.9
20260504203657 68 136 6.0 9.0 0.00 0.00 0.00 42 1010.9
20260504203154 68 144 7.0 9.0 0.00 0.00 0.00 41 1010.6
20260504202648 68 180 4.0 12.0 0.00 0.00 0.00 42 1010.6
20260504202146 68 274 3.0 15.0 0.00 0.00 0.00 41 1010.7
20260504201643 69 232 1.0 6.0 0.00 0.00 0.00 41 1011.0
20260504201140 68 91 9.0 17.0 0.00 0.00 0.00 40 1010.9
20260504200637 69 145 2.0 10.0 0.00 0.00 0.00 41 1011.0
20260504200134 68 159 3.0 12.0 0.00 0.00 0.00 41 1010.8
20260504195630 69 202 6.0 9.0 0.00 0.00 0.00 40 1011.2
20260504195126 68 149 11.0 12.0 0.00 0.00 0.00 39 1010.8
20260504194623 68 151 5.0 15.0 0.00 0.00 0.00 40 1011.0
20260504194119 69 190 7.0 10.0 0.00 0.00 0.00 39 1011.0
20260504193615 68 186 4.0 10.0 0.00 0.00 0.00 41 1011.0
20260504193114 67 151 10.0 13.0 0.00 0.00 0.00 39 1010.9
20260504192612 67 45 3.0 13.0 0.00 0.00 0.00 40 1011.2
20260504192109 67 161 3.0 13.0 0.00 0.00 0.00 40 1011.2
20260504191608 68 78 6.0 7.0 0.00 0.00 0.00 39 1011.2
20260504191103 68 243 4.0 10.0 0.00 0.00 0.00 38 1011.2
20260504190600 68 180 4.0 13.0 0.00 0.00 0.00 39 1011.0
20260504190056 68 183 6.0 12.0 0.00 0.00 0.00 38 1011.3
20260504185553 68 134 7.0 9.0 0.00 0.00 0.00 38 1011.2
20260504185050 68 224 1.0 9.0 0.00 0.00 0.00 37 1011.2
20260504184545 68 175 2.0 11.0 0.00 0.00 0.00 37 1011.2
20260504184040 68 216 2.0 14.0 0.00 0.00 0.00 37 1011.4
20260504183538 70 157 6.0 8.0 0.00 0.00 0.00 37 1011.3
20260504183036 69 44 2.0 6.0 0.00 0.00 0.00 38 1011.4
20260504182532 69 171 2.0 10.0 0.00 0.00 0.00 37 1011.4
20260504182030 68 165 3.0 7.0 0.00 0.00 0.00 38 1011.6
20260504181527 68 213 5.0 6.0 0.00 0.00 0.00 39 1011.4
20260504181025 68 111 6.0 10.0 0.00 0.00 0.00 36 1011.7
20260504180524 68 261 2.0 9.0 0.00 0.00 0.00 39 1011.7
20260504180022 69 61 2.0 11.0 0.00 0.00 0.00 36 1012.1
20260504175519 68 196 8.0 12.0 0.00 0.00 0.00 37 1011.9
20260504175016 68 142 1.0 6.0 0.00 0.00 0.00 37 1011.7
20260504174514 68 220 4.0 6.0 0.00 0.00 0.00 34 1011.8
20260504174011 68 63 1.0 4.0 0.00 0.00 0.00 35 1011.9
20260504173507 68 183 3.0 5.0 0.00 0.00 0.00 38 1012.2
20260504173005 67 205 4.0 7.0 0.00 0.00 0.00 36 1012.0
20260504172500 68 263 7.0 9.0 0.00 0.00 0.00 36 1012.1
20260504171957 66 291 8.0 18.0 0.00 0.00 0.00 35 1012.0
20260504171454 66 97 5.0 6.0 0.00 0.00 0.00 36 1012.0
20260504170951 66 272 10.0 13.0 0.00 0.00 0.00 34 1012.1
20260504170447 66 307 9.0 12.0 0.00 0.00 0.00 36 1012.1